Weather History for KCKN - September, 2013

Change the Weather History Date:

Thursday, September 5, 2013

  Actual Average Record
Temperature  
Mean Temperature 68 °F -  
Max Temperature 84 °F 72 °F 93 °F (2001)
Min Temperature 51 °F 50 °F 41 °F (2011)
Cooling Degree Days 2    
Growing Degree Days 18 (Base 50)    
Moisture  
Dew Point 54 °F    
Average Humidity 62    
Maximum Humidity 82    
Minimum Humidity 39    
Precipitation  
Precipitation 0.00 in - - ()
Sea Level Pressure  
Sea Level Pressure 30.12 in    
Wind  
Wind Speed 7 mph (SSE)    
Max Wind Speed 15 mph    
Max Gust Speed 18 mph    
Visibility 10 miles    
Events      
Averages and records for this station are not official NWS values.
T = Trace of Precipitation, MM = Missing Value Source: NWS Daily Summary

Daily Weather History Graph

Daily Weather History Graph

Search for Another Location

Airport or City:

Trip Planner

Search our weather history database for the weather conditions in past years. The results will help you decide how hot, cold, wet, or windy it might be!

Date:

Astronomy

Sep. 05, 2013 Rise Set
Actual Time 6:50 AM CDT 7:58 PM CDT
Civil Twilight 6:18 AM CDT 8:30 PM CDT
Nautical Twilight 5:40 AM CDT 9:08 PM CDT
Astronomical Twilight 4:59 AM CDT 9:48 PM CDT
Moon 7:08 AM CDT (9/5) 7:43 PM CDT (9/5)
Length of Visible Light 14h 11m
Length of Day
13h 08m
New Moon, 0% of the Moon is Illuminated
Sep 5
New Moon
Sep 12
First Quarter
Sep 19
Full
Sep 26
Last Quarter
Oct 4
New

Hourly Weather History & Observations

Time (CDT) Temp. Heat Index Dew Point Humidity Pressure Visibility Wind Dir Wind Speed Gust Speed Precip Events Conditions
12:14 AM 55.4 °F - 46.4 °F 72% 30.20 in 10.0 mi East 4.6 mph - N/A   Clear
12:34 AM 55.4 °F - 46.4 °F 72% 30.20 in 10.0 mi East 4.6 mph - N/A   Clear
12:55 AM 55.4 °F - 46.4 °F 72% 30.20 in 10.0 mi East 5.8 mph - N/A   Clear
1:14 AM 55.4 °F - 46.4 °F 72% 30.20 in 10.0 mi Calm Calm - N/A   Clear
1:35 AM 53.6 °F - 46.4 °F 77% 30.20 in 10.0 mi East 5.8 mph - N/A   Clear
1:55 AM 53.6 °F - 46.4 °F 77% 30.20 in 10.0 mi East 5.8 mph - N/A   Clear
2:14 AM 53.6 °F - 46.4 °F 77% 30.20 in 10.0 mi East 3.5 mph - N/A   Clear
2:35 AM 53.6 °F - 46.4 °F 77% 30.21 in 10.0 mi ESE 4.6 mph - N/A   Clear
2:54 AM 53.6 °F - 46.4 °F 77% 30.20 in 10.0 mi East 4.6 mph - N/A   Clear
3:15 AM 53.6 °F - 46.4 °F 77% 30.20 in 10.0 mi ESE 3.5 mph - N/A   Clear
3:35 AM 51.8 °F - 46.4 °F 82% 30.20 in 10.0 mi East 4.6 mph - N/A   Clear
3:54 AM 51.8 °F - 46.4 °F 82% 30.20 in 10.0 mi ESE 4.6 mph - N/A   Clear
4:15 AM 51.8 °F - 44.6 °F 76% 30.21 in 10.0 mi ESE 4.6 mph - N/A   Clear
4:34 AM 53.6 °F - 44.6 °F 72% 30.20 in 10.0 mi SE 6.9 mph - N/A   Clear
4:54 AM 51.8 °F - 44.6 °F 76% 30.20 in 10.0 mi ESE 6.9 mph - N/A   Clear
5:15 AM 53.6 °F - 42.8 °F 67% 30.20 in 10.0 mi ESE 6.9 mph - N/A   Clear
5:34 AM 53.6 °F - 42.8 °F 67% 30.19 in 10.0 mi ESE 8.1 mph - N/A   Clear
5:54 AM 53.6 °F - 44.6 °F 72% 30.20 in 10.0 mi ESE 5.8 mph - N/A   Clear
6:15 AM 51.8 °F - 44.6 °F 76% 30.20 in 10.0 mi ESE 4.6 mph - N/A   Clear
6:34 AM 51.8 °F - 44.6 °F 76% 30.20 in 10.0 mi ESE 5.8 mph - N/A   Clear
6:55 AM 51.8 °F - 44.6 °F 76% 30.20 in 10.0 mi ESE 6.9 mph - N/A   Clear
7:14 AM 51.8 °F - 44.6 °F 76% 30.19 in 10.0 mi ESE 6.9 mph - N/A   Clear
7:34 AM 53.6 °F - 46.4 °F 77% 30.20 in 10.0 mi ESE 3.5 mph - N/A   Clear
7:55 AM 53.6 °F - 46.4 °F 77% 30.20 in 10.0 mi ESE 4.6 mph - N/A   Clear
8:14 AM 55.4 °F - 46.4 °F 72% 30.19 in 10.0 mi SE 4.6 mph - N/A   Clear
8:35 AM 57.2 °F - 48.2 °F 72% 30.19 in 10.0 mi SSE 5.8 mph - N/A   Clear
8:55 AM 59.0 °F - 50.0 °F 72% 30.19 in 10.0 mi SSE 4.6 mph - N/A   Clear
9:14 AM 62.6 °F - 51.8 °F 68% 30.18 in 10.0 mi SSE 6.9 mph - N/A   Clear
9:35 AM 64.4 °F - 51.8 °F 64% 30.19 in 10.0 mi SSE 9.2 mph - N/A   Clear
9:54 AM 66.2 °F - 53.6 °F 64% 30.19 in 10.0 mi SSE 5.8 mph - N/A   Clear
10:14 AM 68.0 °F - 53.6 °F 60% 30.18 in 10.0 mi South 5.8 mph - N/A   Clear
10:35 AM 69.8 °F - 55.4 °F 60% 30.18 in 10.0 mi South 5.8 mph - N/A   Clear
10:54 AM 71.6 °F - 55.4 °F 57% 30.17 in 10.0 mi South 5.8 mph - N/A   Clear
11:15 AM 71.6 °F - 55.4 °F 57% 30.17 in 10.0 mi South 6.9 mph - N/A   Clear
11:35 AM 73.4 °F - 55.4 °F 53% 30.17 in 10.0 mi South 9.2 mph - N/A   Clear
11:54 AM 75.2 °F - 55.4 °F 50% 30.16 in 10.0 mi South 8.1 mph - N/A   Clear
12:15 PM 77.0 °F - 55.4 °F 47% 30.15 in 10.0 mi South 8.1 mph - N/A   Clear
12:34 PM 77.0 °F - 55.4 °F 47% 30.15 in 10.0 mi South 9.2 mph - N/A   Clear
12:55 PM 78.8 °F - 51.8 °F 39% 30.14 in 10.0 mi South 11.5 mph 16.1 mph N/A   Clear
1:15 PM 78.8 °F - 55.4 °F 44% 30.14 in 10.0 mi South 12.7 mph 17.3 mph N/A   Clear
1:34 PM 78.8 °F - 55.4 °F 44% 30.13 in 10.0 mi South 11.5 mph - N/A   Clear
1:55 PM 82.4 °F 82.0 °F 57.2 °F 42% 30.12 in 10.0 mi South 9.2 mph 17.3 mph N/A   Clear
2:14 PM 82.4 °F 82.0 °F 57.2 °F 42% 30.11 in 10.0 mi South 15.0 mph 18.4 mph N/A   Clear
2:34 PM 82.4 °F 82.0 °F 57.2 °F 42% 30.10 in 10.0 mi South 8.1 mph 11.5 mph N/A   Clear
2:55 PM 82.4 °F 82.0 °F 57.2 °F 42% 30.10 in 10.0 mi South 10.4 mph - N/A   Clear
3:14 PM 82.4 °F 82.0 °F 57.2 °F 42% 30.09 in 10.0 mi South 12.7 mph - N/A   Clear
3:35 PM 84.2 °F 83.8 °F 59.0 °F 42% 30.08 in 10.0 mi South 11.5 mph 17.3 mph N/A   Clear
3:54 PM 82.4 °F 82.9 °F 60.8 °F 48% 30.07 in 10.0 mi South 11.5 mph - N/A   Clear
4:14 PM 84.2 °F 84.4 °F 60.8 °F 45% 30.07 in 10.0 mi South 10.4 mph - N/A   Clear
4:35 PM 84.2 °F 84.4 °F 60.8 °F 45% 30.06 in 10.0 mi South 12.7 mph 16.1 mph N/A   Clear
4:54 PM 84.2 °F 85.0 °F 62.6 °F 48% 30.06 in 10.0 mi South 12.7 mph - N/A   Clear
5:14 PM 82.4 °F 83.4 °F 62.6 °F 51% 30.05 in 10.0 mi South 13.8 mph - N/A   Clear
5:35 PM 82.4 °F 83.4 °F 62.6 °F 51% 30.04 in 10.0 mi South 9.2 mph - N/A   Clear
5:54 PM 82.4 °F 83.4 °F 62.6 °F 51% 30.04 in 10.0 mi South 11.5 mph - N/A   Clear
6:14 PM 84.2 °F 85.0 °F 62.6 °F 48% 30.03 in 10.0 mi South 10.4 mph - N/A   Clear
6:35 PM 82.4 °F 83.4 °F 62.6 °F 51% 30.03 in 10.0 mi South 13.8 mph - N/A   Clear
6:54 PM 82.4 °F 83.4 °F 62.6 °F 51% 30.02 in 10.0 mi South 12.7 mph - N/A   Clear
7:15 PM 82.4 °F 83.4 °F 62.6 °F 51% 30.01 in 10.0 mi South 8.1 mph - N/A   Clear
7:34 PM 80.6 °F 81.8 °F 62.6 °F 54% 30.01 in 10.0 mi South 9.2 mph - N/A   Clear
7:54 PM 80.6 °F 81.8 °F 62.6 °F 54% 30.01 in 10.0 mi SSE 8.1 mph - N/A   Clear
8:15 PM 75.2 °F - 62.6 °F 65% 30.01 in 10.0 mi SSE 6.9 mph - N/A   Clear
8:34 PM 75.2 °F - 62.6 °F 65% 30.00 in 10.0 mi South 8.1 mph - N/A   Clear
8:54 PM 77.0 °F - 62.6 °F 61% 30.01 in 10.0 mi South 10.4 mph - N/A   Clear
9:15 PM 75.2 °F - 62.6 °F 65% 30.01 in 10.0 mi South 9.2 mph - N/A   Clear
9:34 PM 75.2 °F - 62.6 °F 65% 30.01 in 10.0 mi South 9.2 mph - N/A   Clear
9:55 PM 75.2 °F - 62.6 °F 65% 30.01 in 10.0 mi South 9.2 mph - N/A   Clear
10:14 PM 73.4 °F - 62.6 °F 69% 30.00 in 10.0 mi South 10.4 mph - N/A   Clear
10:34 PM 71.6 °F - 62.6 °F 73% 30.00 in 10.0 mi SSE 8.1 mph - N/A   Clear
10:55 PM 73.4 °F - 62.6 °F 69% 30.00 in 10.0 mi South 9.2 mph - N/A   Clear
11:14 PM 71.6 °F - 62.6 °F 73% 29.99 in 10.0 mi SSE 8.1 mph - N/A   Clear
11:35 PM 69.8 °F - 62.6 °F 78% 29.98 in 10.0 mi SSE 6.9 mph - N/A   Clear
11:54 PM 69.8 °F - 62.6 °F 78% 29.98 in 10.0 mi SSE 8.1 mph - N/A   Clear